User: anonymous   Login
Location: Bridgewater Hill Observatory
(43.5992°N, 72.6989°W)
Time: 13:06:34
(UTC-05:00)
Language:

Cosmos 1452 Rocket - Orbit

View from above orbital plane
View from above orbital plane
View from above satellite
View from above satellite

Ground track
Ground track

The orbit data is extracted from the following two-line orbital elements,

1 13992U 83031B   17058.99659226  .00000043  00000-0  23627-4 0  9999
2 13992  74.0527 207.4049 0005740 224.7497 265.4790 14.36075039773130
Epoch (UTC): 27 February 2017 23:55:05
Eccentricity: 0.0005740
inclination: 74.0527°
perigee height: 767 km
apogee height: 775 km
right ascension of ascending node: 207.4049°
argument of perigee: 224.7497°
revolutions per day: 14.36075039
mean anomaly at epoch: 265.4790°
orbit number at epoch: 77313

The dashed part of the orbit path shows where the satellite is in the earth's shadow,  

DLR